Погода в Лангкави

Малайзия     6°21′03″N   99°45′45″E
темп.,
°C
ветер,
м/с
пор.,
м/с
влажн.,
%
обл.,
%
осадки,
мм/ч
давл.,
гПа
погр.,
м
13 июня, вс
вс1323:00+29юз337084 0.8 1011328
02:00+29юз3366100 4.6 1010580
05:00+29юз336499 0.0 1008859
08:00+29ююз2264100 0.0 1009807
11:00+29ююв2267100 0.0 1010826
14:00+29ю2267100 0.0 1009790
17:00+29зюз1166100 0.0 1007661
20:00+29зсз2267100 0.0 1008599
14 июня, пн
пн1423:00+30ссз2268100 0.0 1011667
02:00+29с2269100 0.1 1009733
05:00+28с237499 1.8 1008267
08:00+29ссв1171100 3.2 1010289
11:00+29ю0170100 1.0 1011251
14:00+29ю236528 1.1 1009918
17:00+30ю3365100 0.0 1007944
20:00+29ююз447024 0.0 1008930
15 июня, вт
вт1523:00+29ююз227164 0.0 1010801
02:00+29юз227297 0.3 1009638
05:00+28юз2274100 1.5 1008562
08:00+28юз2274100 5.3 1010113
11:00+29ююз226698 1.6 1011484
14:00+29з226599 1.6 1009718
17:00+29зсз336638 0.0 1007685
20:00+29сз116483 0.0 1009438
16 июня, ср
ср1623:00+29сз3366100 0.0 1011465
02:00+29сз336799 0.0 1009538
05:00+29ссв2268100 0.0 1009735
08:00+29св226989 0.0 1010749
11:00+29св2171100 0.0 1011705
14:00+29с1170100 0.0 1009732
17:00+29ссз226753 0.0 1008782
20:00+29сз33675 0.0 1010728
17 июня, чт
чт1723:00+29ссз33695 0.0 1012650
02:00+29сз3469100 0.0 1011704
05:00+29зсз336922 0.0 1010714
08:00+29з2267100 0.0 1011817
11:00+29з22667 0.0 1012844
14:00+29з33665 0.0 1010939
17:00+29зсз336422 0.0 1009964
20:00+29зсз336538 0.0 1010928